Location: Norton
(51.3000°N, 0.8167°E)
Time: 02:08:19
(UTC+00:00)

CZ-4B R/B - Pass Details

Date: 03 March 2021
Orbit: 388 x 455 km, 97.6° (Epoch: 13 April)

Event Time Altitude Azimuth Distance (km) Brightness Sun altitude
Rises 18:39:08 0° 9° (N) 2,295 4.9 -9.9°
Reaches altitude 10° 18:41:08 10° 4° (N) 1,436 3.9 -10.2°
Maximum altitude 18:44:05 48° 288° (WNW) 524 2.2 -10.6°
Drops below altitude 10° 18:47:03 10° 213° (SSW) 1,437 4.4 -11.1°
Sets 18:49:03 0° 207° (SSW) 2,298 5.3 -11.4°
